This is the latest recevied weather packets stored in our database for station/object OE3PDB-4. If no packets are shown the sender has not sent any weather packets the latest 10 day(s).
| Time | Temp. | Humidity | Pressure | Rain* | Wind** | Luminosity | Snow |
|---|---|---|---|---|---|---|---|
| 1777560011 | 18.33° C | 23% | 1026.9 hPa | 0 mm | - | - | - |
| 1777559411 | 18.33° C | 24% | 1027 hPa | 0 mm | - | - | - |
| 1777558811 | 18.33° C | 24% | 1027 hPa | 0 mm | - | - | - |
| 1777558211 | 18.33° C | 24% | 1027.2 hPa | 0 mm | - | - | - |
| 1777557611 | 18.33° C | 24% | 1027.3 hPa | 0 mm | - | - | - |
| 1777557011 | 17.78° C | 24% | 1027.3 hPa | 0 mm | - | - | - |
| 1777556411 | 17.78° C | 24% | 1027.4 hPa | 0 mm | - | - | - |
| 1777555811 | 17.78° C | 24% | 1027.6 hPa | 0 mm | - | - | - |
| 1777555211 | 17.78° C | 23% | 1027.5 hPa | 0 mm | - | - | - |
| 1777554611 | 17.78° C | 25% | 1027.7 hPa | 0 mm | - | - | - |
| 1777554011 | 17.22° C | 25% | 1027.8 hPa | 0 mm | - | - | - |
| 1777553411 | 17.22° C | 25% | 1027.8 hPa | 0 mm | - | - | - |
| 1777552811 | 16.67° C | 26% | 1027.8 hPa | 0 mm | - | - | - |
| 1777552211 | 16.11° C | 25% | 1027.8 hPa | 0 mm | - | - | - |
| 1777551611 | 16.67° C | 26% | 1028.2 hPa | 0 mm | - | - | - |
| 1777551011 | 16.11° C | 27% | 1028.3 hPa | 0 mm | - | - | - |
| 1777550411 | 16.11° C | 27% | 1028.3 hPa | 0 mm | - | - | - |
| 1777549811 | 16.11° C | 27% | 1028.4 hPa | 0 mm | - | - | - |
| 1777549211 | 16.11° C | 27% | 1028.5 hPa | 0 mm | - | - | - |
| 1777548611 | 16.11° C | 28% | 1028.7 hPa | 0 mm | - | - | - |
| 1777548011 | 16.67° C | 29% | 1028.7 hPa | 0 mm | - | - | - |
| 1777547411 | 15.56° C | 29% | 1028.7 hPa | 0 mm | - | - | - |
| 1777546811 | 15.56° C | 29% | 1028.7 hPa | 0 mm | - | - | - |
| 1777546211 | 15.56° C | 29% | 1028.8 hPa | 0 mm | - | - | - |
| 1777545611 | 15° C | 30% | 1028.8 hPa | 0 mm | - | - | - |
* Rain latest hour (hover to see other rain measurements)
** Current wind speed in m/s (hover to see current wind gust speed)